星链-3074 (STARLINK-3074 )

导读 | 星芒AI

STARLINK-3074 是 SpaceX Starlink 项目中的一颗低轨通信卫星,属于第三代星链卫星(v1.5 或 v2 版本)。它于2023年发射,部署在约550公里高度的近地轨道,旨在为全球用户提供高速互联网服务。该卫星采用先进推进系统和激光通信技术,提升网络稳定性和数据传输效率。作为星链星座的一部分,STARLINK-3074 支持偏远地区网络覆盖,助力实现全球宽带连接目标。

基本信息
目录编号:
49170
目录名称:
STARLINK-3074
国际标识:
2021-082AS
轨道中心:
EARTH
卫星名称:
星链-3074
卫星全名:
星链-3074 (STARLINK-3074 )
卫星状态:
已陨落 最后检测时间 2024-12-18
发射日期:
2021-09-14 UTC
国别 :
美国 (US)
星等 :
--
轨道信息
数据来源 国际轨道数据
星历时间: 2024-12-18T06:47:47+0800
轨道信息已过期317天
半长轴: 6520.832km
偏心率: 0.0006404
轨道倾角: 69.978°
近地点辐角 243.406°
升交点赤经 323.972°
平近点角 239.760°
近地点: 138.521km
远地点: 146.873km
周期: 87.340分钟
每日圈数: 16.487253
详细信息
固有亮度:
5
最大亮度:
2.5
卫星平台:
Starlink v1.5
覆盖范围:
全球
运营商:
太空探索技术公司
运营商所在国:
美国
制造商(研发单位):
太空探索技术公司
制造商所在国:
美国
使用方式:
暂无
卫星简介
星链(Starlink)计划是由太空探索技术公司(SpaceX)提出的一个巨型低轨卫星互联网星座项目,计划在2019年至2024年间在太空搭建由约1.2万颗卫星组成的“星链”网络,其中1584颗将部署在地球上空550千米处的近地轨道,并从2020年开始工作。该卫星仍在工作。